Date String (YYYY-MM-DD hh:mm:ss) UTC,Instrument flags,Ambient pressure (hPa),Sample flow (lpm),Bypass flow (lpm),Sample temperature (°C),Ambient temperature (°C),ASC tube jacket temperature (°C),LED temperature (°C),Box temperature (°C),Sample RH (%),Span deviation,Mass concentration (μg/m³),Mass concentration (μg/m³),Mass concentration (μg/m³)
DateTimeUTC,F1_M11,P_M11,Q1_M11,Q2_M11,T1_M11,T2_M11,T3_M11,T4_M11,T5_M11,U1_M11,ZSPAN_M11,X2_M11,X0_M11,X1_M11
2023-05-06 08:00:00,,0825.4,4.98,0.00,29.0,27.1,00.0,37.4,30.3,10.5,0000.0,0003.54,0008.20,0002.11
2023-05-06 08:01:00,,0825.4,5.01,0.00,29.0,27.1,00.0,37.4,30.3,10.6,0000.0,0003.55,0008.21,0002.12
2023-05-06 08:02:00,,0825.4,5.01,0.00,28.9,27.1,00.0,37.4,30.3,10.5,0000.0,0003.57,0008.36,0002.15
2023-05-06 08:03:00,,0825.4,5.00,0.00,28.9,27.1,00.0,37.4,30.3,10.6,0000.0,0003.62,0008.74,0002.16
2023-05-06 08:04:00,,0825.4,5.00,0.00,28.9,27.1,00.0,37.4,30.2,10.6,0000.0,0003.64,0009.36,0002.18
2023-05-06 08:05:00,,0825.4,5.00,0.00,28.9,27.0,00.0,37.4,30.2,10.5,0000.0,0003.60,0010.16,0002.19
2023-05-06 08:06:00,,0825.3,5.00,0.00,28.9,27.0,00.0,37.4,30.2,10.2,0000.0,0003.56,0010.02,0002.19
2023-05-06 08:07:00,,0825.3,5.00,0.00,28.9,27.0,00.0,37.3,30.2,10.2,0000.0,0003.53,0009.91,0002.19
2023-05-06 08:08:00,,0825.3,4.99,0.00,28.9,26.9,00.0,37.3,30.2,10.2,0000.0,0003.54,0009.96,0002.18
2023-05-06 08:09:00,,0825.2,5.01,0.00,28.9,26.9,00.0,37.3,30.2,10.3,0000.0,0003.53,0009.93,0002.17
2023-05-06 08:10:00,,0825.3,5.01,0.00,28.9,26.9,00.0,37.3,30.2,10.4,0000.0,0003.55,0009.58,0002.18
2023-05-06 08:11:00,,0825.3,5.01,0.00,28.8,26.9,00.0,37.3,30.1,10.4,0000.0,0003.61,0010.04,0002.19
2023-05-06 08:12:00,,0825.2,5.01,0.00,28.8,26.8,00.0,37.3,30.1,10.3,0000.0,0003.61,0010.06,0002.19
2023-05-06 08:13:00,,0825.3,4.99,0.00,28.8,26.8,00.0,37.2,30.1,10.1,0000.0,0003.59,0009.98,0002.16
2023-05-06 08:14:00,,0825.3,4.99,0.00,28.8,26.8,00.0,37.2,30.1,10.0,0000.0,0003.58,0010.25,0002.16
2023-05-06 08:15:00,,0825.2,5.00,0.00,28.8,26.8,00.0,37.2,30.1,09.9,0000.0,0003.56,0010.07,0002.13
2023-05-06 08:16:00,,0825.2,5.01,0.00,28.8,26.7,00.0,37.2,30.0,09.9,0000.0,0003.57,0009.02,0002.11
2023-05-06 08:17:00,,0825.2,5.01,0.00,28.7,26.7,00.0,37.2,30.0,10.1,0000.0,0003.64,0009.42,0002.12
2023-05-06 08:18:00,,0825.2,5.01,0.00,28.7,26.8,00.0,37.2,30.0,10.2,0000.0,0003.64,0009.47,0002.14
2023-05-06 08:19:00,,0825.2,4.99,0.00,28.7,26.8,00.0,37.2,30.1,10.2,0000.0,0003.62,0009.81,0002.16
2023-05-06 08:20:00,,0825.2,5.00,0.00,28.7,26.8,00.0,37.2,30.2,10.3,0000.0,0003.63,0009.97,0002.18
2023-05-06 08:21:00,,0825.2,5.01,0.00,28.7,26.8,00.0,37.2,30.1,10.3,0000.0,0003.58,0009.71,0002.15
2023-05-06 08:22:00,,0825.2,5.00,0.00,28.7,26.8,00.0,37.1,30.0,10.3,0000.0,0003.52,0009.26,0002.13
2023-05-06 08:23:00,,0825.2,4.99,0.00,28.7,26.8,00.0,37.1,30.0,10.4,0000.0,0003.52,0009.44,0002.12
2023-05-06 08:24:00,,0825.2,5.00,0.00,28.7,26.8,00.0,37.1,30.0,10.2,0000.0,0003.56,0009.65,0002.13
2023-05-06 08:25:00,,0825.2,5.00,0.00,28.7,26.8,00.0,37.1,30.0,10.3,0000.0,0003.56,0009.24,0002.12
2023-05-06 08:26:00,,0825.2,5.00,0.00,28.7,26.8,00.0,37.1,30.0,10.2,0000.0,0003.52,0009.00,0002.13
2023-05-06 08:27:00,,0825.2,4.99,0.00,28.7,26.8,00.0,37.1,30.0,10.2,0000.0,0003.51,0009.59,0002.14
2023-05-06 08:28:00,,0825.2,5.01,0.00,28.6,26.8,00.0,37.1,29.9,10.3,0000.0,0003.43,0009.23,0002.13
2023-05-06 08:29:00,,0825.2,5.01,0.00,28.6,26.7,00.0,37.1,29.9,10.4,0000.0,0003.41,0009.25,0002.09
2023-05-06 08:30:00,,0825.2,5.00,0.00,28.6,26.6,00.0,37.0,29.9,10.5,0000.0,0003.46,0009.10,0002.07
2023-05-06 08:31:00,,0825.1,5.00,0.00,28.6,26.7,00.0,37.0,30.0,10.7,0000.0,0003.48,0009.30,0002.05
2023-05-06 08:32:00,,0825.1,4.99,0.00,28.6,26.7,00.0,37.0,29.9,10.7,0000.0,0003.54,0009.42,0002.07
2023-05-06 08:33:00,,0825.1,5.00,0.00,28.6,26.7,00.0,37.0,29.9,10.8,0000.0,0003.58,0009.89,0002.09
2023-05-06 08:34:00,,0825.1,5.00,0.00,28.6,26.7,00.0,37.0,30.0,10.8,0000.0,0003.58,0009.89,0002.08
2023-05-06 08:35:00,,0825.1,4.99,0.00,28.6,26.7,00.0,37.0,30.0,10.8,0000.0,0003.59,0009.75,0002.08
2023-05-06 08:36:00,,0825.1,5.01,0.00,28.6,26.7,00.0,37.0,29.9,10.8,0000.0,0003.59,0009.62,0002.09
2023-05-06 08:37:00,,0825.1,5.01,0.00,28.6,26.7,00.0,37.0,29.9,10.7,0000.0,0003.61,0009.59,0002.09
2023-05-06 08:38:00,,0825.1,5.00,0.00,28.5,26.6,00.0,37.0,29.9,10.3,0000.0,0003.65,0009.26,0002.07
2023-05-06 08:39:00,,0825.1,5.01,0.00,28.5,26.6,00.0,37.0,29.9,10.1,0000.0,0003.66,0009.14,0002.06
2023-05-06 08:40:00,,0825.1,5.00,0.00,28.5,26.6,00.0,36.9,29.8,10.1,0000.0,0003.70,0009.06,0002.07
2023-05-06 08:41:00,,0825.1,4.99,0.00,28.5,26.6,00.0,36.9,29.8,10.0,0000.0,0003.67,0008.94,0002.07
2023-05-06 08:42:00,,0825.1,5.00,0.00,28.5,26.6,00.0,36.9,29.8,10.0,0000.0,0003.61,0008.51,0002.06
2023-05-06 08:43:00,,0825.1,5.01,0.00,28.5,26.6,00.0,36.9,29.8,09.8,0000.0,0003.54,0008.74,0002.05
2023-05-06 08:44:00,,0825.1,5.01,0.00,28.5,26.6,00.0,36.9,29.8,10.3,0000.0,0003.54,0008.93,0002.03
2023-05-06 08:45:00,,0825.0,5.00,0.00,28.5,26.6,00.0,36.9,29.8,10.1,0000.0,0003.55,0008.78,0002.03
2023-05-06 08:46:00,,0825.0,4.99,0.00,28.5,26.5,00.0,36.9,29.8,09.9,0000.0,0003.56,0008.96,0002.03
2023-05-06 08:47:00,,0825.0,5.00,0.00,28.4,26.5,00.0,36.9,29.8,09.8,0000.0,0003.54,0009.30,0002.02
2023-05-06 08:48:00,,0825.0,5.00,0.00,28.4,26.5,00.0,36.9,29.7,09.9,0000.0,0003.58,0010.03,0002.02
2023-05-06 08:49:00,,0825.0,5.00,0.00,28.4,26.5,00.0,36.9,29.8,09.9,0000.0,0003.57,0009.92,0002.00
2023-05-06 08:50:00,,0825.0,5.00,0.00,28.4,26.5,00.0,36.8,29.7,09.9,0000.0,0003.59,0009.97,0002.01
2023-05-06 08:51:00,,0825.0,5.00,0.00,28.4,26.5,00.0,36.8,29.7,09.8,0000.0,0003.62,0010.14,0002.03
2023-05-06 08:52:00,,0825.0,5.00,0.00,28.4,26.5,00.0,36.8,29.8,09.8,0000.0,0003.63,0010.22,0002.05
2023-05-06 08:53:00,,0825.0,4.99,0.00,28.4,26.5,00.0,36.8,29.8,09.8,0000.0,0003.61,0010.20,0002.04
2023-05-06 08:54:00,,0825.0,4.99,0.00,28.4,26.5,00.0,36.8,29.7,09.8,0000.0,0003.63,0009.78,0002.03
2023-05-06 08:55:00,,0825.0,5.00,0.00,28.4,26.5,00.0,36.8,29.7,09.8,0000.0,0003.61,0009.35,0002.02
2023-05-06 08:56:00,,0825.0,5.00,0.00,28.4,26.5,00.0,36.8,29.7,09.9,0000.0,0003.63,0009.16,0002.01
2023-05-06 08:57:00,,0825.0,5.00,0.00,28.3,26.5,00.0,36.8,29.8,09.8,0000.0,0003.58,0008.98,0002.00
2023-05-06 08:58:00,,0824.9,5.00,0.00,28.3,26.4,00.0,36.8,29.7,09.8,0000.0,0003.55,0009.11,0001.98
2023-05-06 08:59:00,,0825.0,5.00,0.00,28.3,26.4,00.0,36.8,29.7,09.9,0000.0,0003.50,0008.71,0001.96
